Location: Unspecified
(47.5840°N, 122.3000°W)
Time: 02:00:41
(UTC+00:00)

SL-08 R/B - Pass Details

Date: 09 December 2025
Orbit: 668 x 729 km, 98.5° (Epoch: 12 January)

Event Time Altitude Azimuth Distance (km) Brightness Sun altitude
Rises 15:06:41 0° 160° (SSE) 3,006 7.4 -6.5°
Reaches altitude 10° 15:08:53 10° 159° (SSE) 2,102 6.6 -6.2°
Maximum altitude 15:13:28 79° 75° (ENE) 700 3.5 -5.5°
Drops below altitude 10° 15:18:10 10° 348° (NNW) 2,150 5.5 -4.8°
Sets 15:20:26 0° 347° (NNW) 3,081 6.2 -4.5°
